| time (UTC) | temp F | wind direction | speed MPH | gust MPH | rain 1hr in | rain 24hr in | rain mn in | humidity % | barometer mb |
| 20260507014509 | 56 | 284 | 3.0 | 8.0 | 0.00 | 0.00 | 0.00 | 81 | 1014.6 |
| 20260507013008 | 56 | 307 | 4.0 | 11.0 | 0.00 | 0.00 | 0.00 | 82 | 1014.6 |
| 20260507011526 | 56 | 280 | 5.0 | 10.0 | 0.00 | 0.00 | 0.00 | 80 | 1014.6 |
| 20260507010013 | 57 | 271 | 2.0 | 8.0 | 0.00 | 0.00 | 0.00 | 80 | 1014.6 |
| 20260507004512 | 57 | 277 | 5.0 | 10.0 | 0.00 | 0.00 | 0.00 | 80 | 1014.5 |
| 20260507003016 | 57 | 263 | 3.0 | 9.0 | 0.00 | 0.00 | 0.00 | 79 | 1014.6 |
| 20260507001602 | 57 | 271 | 4.0 | 11.0 | 0.00 | 0.00 | 0.00 | 80 | 1014.5 |
| 20260507000002 | 57 | 244 | 5.0 | 11.0 | 0.00 | 0.00 | 0.00 | 79 | 1014.7 |
| 20260506234504 | 57 | 262 | 6.0 | 10.0 | 0.00 | 0.00 | 0.00 | 79 | 1014.8 |
| 20260506233002 | 57 | 252 | 6.0 | 10.0 | 0.00 | 0.00 | 0.00 | 79 | 1014.6 |
| 20260506231506 | 57 | 289 | 4.0 | 9.0 | 0.00 | 0.00 | 0.00 | 80 | 1014.6 |
| 20260506230008 | 57 | 304 | 3.0 | 9.0 | 0.00 | 0.00 | 0.00 | 81 | 1014.7 |
| 20260506224506 | 58 | 281 | 3.0 | 8.0 | 0.00 | 0.00 | 0.00 | 80 | 1014.7 |
| 20260506223017 | 58 | 247 | 3.0 | 11.0 | 0.00 | 0.00 | 0.00 | 80 | 1014.8 |
| 20260506221512 | 58 | 267 | 4.0 | 8.0 | 0.00 | 0.00 | 0.00 | 80 | 1014.9 |
| 20260506220054 | 57 | 287 | 4.0 | 10.0 | 0.00 | 0.00 | 0.00 | 79 | 1015.0 |
| 20260506214559 | 58 | 248 | 4.0 | 12.0 | 0.00 | 0.00 | 0.00 | 79 | 1014.9 |
| 20260506213101 | 58 | 294 | 5.0 | 12.0 | 0.00 | 0.00 | 0.00 | 80 | 1014.9 |
| 20260506211503 | 58 | 302 | 4.0 | 8.0 | 0.00 | 0.00 | 0.00 | 81 | 1014.8 |
| 20260506204507 | 57 | 279 | 5.0 | 10.0 | 0.00 | 0.00 | 0.00 | 79 | 1014.9 |
| 20260506203007 | 57 | 275 | 5.0 | 12.0 | 0.00 | 0.00 | 0.00 | 78 | 1014.7 |
| 20260506201509 | 58 | 317 | 4.0 | 12.0 | 0.00 | 0.00 | 0.00 | 78 | 1014.6 |
| 20260506200011 | 58 | 246 | 3.0 | 10.0 | 0.00 | 0.00 | 0.00 | 77 | 1014.5 |
| 20260506194555 | 58 | 211 | 3.0 | 10.0 | 0.00 | 0.00 | 0.00 | 78 | 1014.5 |
| 20260506193056 | 57 | 301 | 4.0 | 9.0 | 0.00 | 0.00 | 0.00 | 78 | 1014.5 |
| 20260506191558 | 57 | 268 | 2.0 | 8.0 | 0.00 | 0.00 | 0.00 | 80 | 1014.5 |
| 20260506184501 | 56 | 285 | 3.0 | 9.0 | 0.00 | 0.00 | 0.00 | 80 | 1014.5 |
| 20260506183000 | 56 | 316 | 5.0 | 10.0 | 0.00 | 0.00 | 0.00 | 80 | 1014.4 |
| 20260506181502 | 56 | 252 | 3.0 | 8.0 | 0.00 | 0.00 | 0.00 | 80 | 1014.3 |
| 20260506180012 | 56 | 232 | 4.0 | 8.0 | 0.00 | 0.00 | 0.00 | 80 | 1014.1 |
| 20260506174506 | 56 | 290 | 4.0 | 9.0 | 0.00 | 0.00 | 0.00 | 80 | 1014.2 |
| 20260506173122 | 55 | 271 | 2.0 | 6.0 | 0.00 | 0.00 | 0.00 | 82 | 1014.1 |
| 20260506171601 | 55 | 253 | 2.0 | 8.0 | 0.00 | 0.00 | 0.00 | 82 | 1014.1 |
| 20260506170051 | 55 | 280 | 5.0 | 10.0 | 0.00 | 0.00 | 0.00 | 82 | 1014.3 |
| 20260506164601 | 54 | 281 | 4.0 | 10.0 | 0.00 | 0.00 | 0.00 | 82 | 1014.2 |
| 20260506163105 | 54 | 294 | 3.0 | 9.0 | 0.00 | 0.00 | 0.00 | 83 | 1014.2 |
| 20260506161641 | 54 | 290 | 2.0 | 8.0 | 0.00 | 0.00 | 0.00 | 85 | 1013.7 |
| 20260506160111 | 54 | 276 | 2.0 | 5.0 | 0.00 | 0.00 | 0.00 | 86 | 1013.6 |
| 20260506154502 | 54 | 284 | 2.0 | 5.0 | 0.00 | 0.00 | 0.00 | 87 | 1013.5 |
| 20260506153051 | 53 | 269 | 1.0 | 4.0 | 0.00 | 0.00 | 0.00 | 88 | 1013.5 |
| 20260506151549 | 53 | 254 | 0.0 | 4.0 | 0.00 | 0.00 | 0.00 | 88 | 1013.6 |
| 20260506150048 | 53 | 286 | 2.0 | 6.0 | 0.00 | 0.00 | 0.00 | 89 | 1013.6 |
| 20260506144554 | 52 | 215 | 1.0 | 5.0 | 0.00 | 0.00 | 0.00 | 89 | 1013.5 |
| 20260506143053 | 52 | 225 | 1.0 | 3.0 | 0.00 | 0.00 | 0.00 | 89 | 1013.4 |
| 20260506141555 | 52 | 215 | 0.0 | 0.0 | 0.00 | 0.00 | 0.00 | 89 | 1013.1 |
| 20260506140059 | 52 | 234 | 0.0 | 0.0 | 0.00 | 0.00 | 0.00 | 89 | 1013.2 |
| 20260506134557 | 52 | 244 | 0.0 | 3.0 | 0.00 | 0.00 | 0.00 | 89 | 1013.2 |
| 20260506133041 | 51 | 290 | 0.0 | 5.0 | 0.00 | 0.00 | 0.00 | 89 | 1013.1 |
| 20260506131530 | 51 | 254 | 0.0 | 0.0 | 0.00 | 0.00 | 0.00 | 89 | 1013.0 |
| 20260506130029 | 52 | 254 | 1.0 | 3.0 | 0.00 | 0.00 | 0.00 | 89 | 1013.1 |
| 20260506124532 | 52 | 240 | 2.0 | 7.0 | 0.00 | 0.00 | 0.00 | 89 | 1012.9 |
| 20260506123037 | 52 | 282 | 2.0 | 5.0 | 0.00 | 0.00 | 0.00 | 88 | 1012.8 |
| 20260506121536 | 52 | 290 | 2.0 | 5.0 | 0.00 | 0.00 | 0.00 | 88 | 1012.8 |
| 20260506120023 | 52 | 239 | 2.0 | 4.0 | 0.00 | 0.00 | 0.00 | 88 | 1012.7 |
| 20260506114530 | 52 | 254 | 2.0 | 6.0 | 0.00 | 0.00 | 0.00 | 88 | 1012.5 |
| 20260506113027 | 52 | 248 | 2.0 | 4.0 | 0.00 | 0.00 | 0.00 | 88 | 1012.3 |
| 20260506111534 | 52 | 248 | 1.0 | 4.0 | 0.00 | 0.00 | 0.00 | 88 | 1012.4 |
| 20260506110040 | 52 | 242 | 2.0 | 5.0 | 0.00 | 0.00 | 0.00 | 88 | 1012.3 |
| 20260506104546 | 53 | 275 | 2.0 | 4.0 | 0.00 | 0.00 | 0.00 | 88 | 1012.3 |
| 20260506103029 | 53 | 244 | 2.0 | 4.0 | 0.00 | 0.00 | 0.00 | 88 | 1012.2 |
| 20260506101540 | 53 | 256 | 2.0 | 4.0 | 0.00 | 0.00 | 0.00 | 88 | 1012.0 |
| 20260506100037 | 53 | 249 | 2.0 | 5.0 | 0.00 | 0.00 | 0.00 | 88 | 1012.0 |
| 20260506094533 | 53 | 252 | 2.0 | 7.0 | 0.00 | 0.00 | 0.00 | 88 | 1011.9 |
| 20260506093021 | 53 | 279 | 3.0 | 7.0 | 0.00 | 0.00 | 0.00 | 87 | 1011.8 |
| 20260506091521 | 53 | 273 | 3.0 | 8.0 | 0.00 | 0.00 | 0.00 | 87 | 1011.7 |
| 20260506090026 | 53 | 277 | 5.0 | 9.0 | 0.00 | 0.00 | 0.00 | 87 | 1011.8 |
| 20260506084531 | 53 | 231 | 3.0 | 8.0 | 0.00 | 0.00 | 0.00 | 87 | 1011.7 |
| 20260506083033 | 53 | 259 | 2.0 | 7.0 | 0.00 | 0.00 | 0.00 | 86 | 1011.3 |
| 20260506081514 | 53 | 240 | 3.0 | 9.0 | 0.00 | 0.00 | 0.00 | 86 | 1011.3 |
| 20260506073034 | 54 | 277 | 4.0 | 8.0 | 0.00 | 0.00 | 0.00 | 86 | 1010.8 |
| 20260506071526 | 54 | 295 | 3.0 | 8.0 | 0.00 | 0.00 | 0.00 | 86 | 1010.9 |
| 20260506061519 | 54 | 261 | 3.0 | 8.0 | 0.00 | 0.00 | 0.00 | 86 | 1010.5 |
| 20260506050103 | 54 | 253 | 2.0 | 5.0 | 0.00 | 0.00 | 0.00 | 86 | 1010.2 |
| 20260506044704 | 54 | 254 | 2.0 | 7.0 | 0.00 | 0.00 | 0.00 | 86 | 1010.2 |
| 20260506043110 | 55 | 268 | 2.0 | 4.0 | 0.00 | 0.00 | 0.00 | 85 | 1010.1 |
| 20260506041603 | 55 | 258 | 3.0 | 7.0 | 0.00 | 0.00 | 0.00 | 85 | 1009.8 |
| 20260506040054 | 56 | 237 | 2.0 | 4.0 | 0.00 | 0.00 | 0.00 | 84 | 1009.7 |
| 20260506034626 | 57 | 248 | 2.0 | 5.0 | 0.00 | 0.00 | 0.00 | 83 | 1009.5 |
| 20260506033058 | 57 | 360 | 1.0 | 4.0 | 0.00 | 0.00 | 0.00 | 82 | 1009.3 |
| 20260506031510 | 58 | 264 | 2.0 | 6.0 | 0.00 | 0.00 | 0.00 | 81 | 1009.1 |
| 20260506030053 | 59 | 292 | 0.0 | 3.0 | 0.00 | 0.00 | 0.00 | 80 | 1009.0 |
| 20260506024510 | 60 | 292 | 1.0 | 4.0 | 0.00 | 0.00 | 0.00 | 79 | 1008.9 |
| 20260506023106 | 60 | 279 | 1.0 | 5.0 | 0.00 | 0.00 | 0.00 | 78 | 1009.0 |
| 20260506020042 | 61 | 255 | 4.0 | 9.0 | 0.00 | 0.00 | 0.00 | 77 | 1008.9 |